This demonstration page uses our WeatherBlox Daily Observations layout. Learn more.

Left ArrowRight Arrow

Hourly Observations for April 3, 2021

Temp ( °F °C ) Dew Point ( °F °C ) Humidity (%) Winds ( mph kmh ) Pressure ( in mb ) Visibility ( mi km ) Precip ( " mm )
12:56 am 00:56 Clear 53 11.7 34 1.1 48 48 SSW 14 22 30.01 1016 10 16 0.00 0.00
1:56 am 01:56 Clear 50 10 34 1.1 54 54 SSW 7 11 30.02 1017 10 16 0.00 0.00
2:56 am 02:56 Clear 50 10 34 1.1 54 54 SW 6 9 30.03 1017 10 16 0.00 0.00
3:56 am 03:56 Clear 44 6.7 33 0.6 65 65 Calm 30.04 1017 10 16 0.00 0.00
4:56 am 04:56 Clear 41 5 32 0 70 70 Calm 30.05 1018 10 16 0.00 0.00
5:56 am 05:56 Clear 39 3.9 31 -0.6 73 73 S 3 6 30.06 1018 10 16 0.00 0.00
6:56 am 06:56 Clear 36 2.2 30 -1.1 79 79 NW 7 11 30.08 1019 10 16 0.00 0.00
7:56 am 07:56 Sunny 35 1.7 29 -1.7 78 78 WNW 6 9 30.12 1020 10 16 0.00 0.00
8:56 am 08:56 Sunny 45 7.2 34 1.1 66 66 NW 5 7 30.12 1020 10 16 0.00 0.00
9:56 am 09:56 Sunny 57 13.9 37 2.8 47 47 Calm 30.12 1020 10 16 0.00 0.00
10:56 am 10:56 Sunny 66 18.9 33 0.6 29 29 E 10 17 30.12 1020 10 16 0.00 0.00
11:56 am 11:56 Sunny 71 21.7 27 -2.8 19 19 E 17 28 30.12 1020 10 16 0.00 0.00
12:56 pm 12:56 Sunny 74 23.3 29 -1.7 19 19 ESE 13 20 30.11 1020 10 16 0.00 0.00
1:56 pm 13:56 Sunny 76 24.4 30 -1.1 18 18 SE 12 19 30.10 1019 10 16 0.00 0.00
2:56 pm 14:56 Sunny 77 25 29 -1.7 17 17 SE 17 28 30.08 1019 10 16 0.00 0.00
3:56 pm 15:56 Sunny 78 25.6 28 -2.2 16 16 ESE 16 26 30.08 1019 10 16 0.00 0.00
4:56 pm 16:56 Sunny 78 25.6 30 -1.1 17 17 SSE 14 22 30.07 1018 10 16 0.00 0.00
5:56 pm 17:56 Sunny 77 25 33 0.6 20 20 SSE 17 28 30.06 1018 10 16 0.00 0.00
6:56 pm 18:56 Sunny 74 23.3 33 0.6 22 22 SSE 15 24 30.06 1018 10 16 0.00 0.00
7:56 pm 19:56 Sunny 65 18.3 34 1.1 32 32 SE 9 15 30.09 1019 10 16 0.00 0.00
8:56 pm 20:56 Clear 59 15 35 1.7 41 41 SSE 10 17 30.09 1019 10 16 0.00 0.00
9:56 pm 21:56 Clear 55 12.8 37 2.8 51 51 SSE 9 15 30.08 1019 10 16 0.00 0.00
10:56 pm 22:56 Clear 55 12.8 39 3.9 55 55 SSE 9 15 30.06 1018 10 16 0.00 0.00
11:56 pm 23:56 Clear 52 11.1 40 4.4 64 64 SE 9 15 30.05 1018 10 16 0.00 0.00

Powered by AerisWeather